www.pogodaiklimat.ru
ПОГОДА в Понсе
Время
и дата
17:55 19.01
18:15 19.01
18:35 19.01
18:55 19.01
19:15 19.01
19:35 19.01
19:55 19.01
20:15 19.01
20:35 19.01
20:55 19.01
21:15 19.01
21:35 19.01
21:55 19.01
22:15 19.01
22:35 19.01
22:55 19.01
23:15 19.01
23:35 19.01
23:55 19.01
00:15 20.01
00:35 20.01
00:55 20.01
01:15 20.01
01:35 20.01
01:55 20.01
02:15 20.01
02:35 20.01
02:55 20.01
03:15 20.01
03:35 20.01
03:55 20.01
04:15 20.01
04:35 20.01
04:55 20.01
05:15 20.01
05:35 20.01
05:55 20.01
06:15 20.01
06:35 20.01
06:55 20.01
07:15 20.01
07:35 20.01
07:55 20.01
08:15 20.01
08:35 20.01
08:55 20.01
09:15 20.01
09:20 20.01
Ветер
(напр.,м/с)
Видим. Явления Облачность Т
(С)
Тd
(С)
f
(%)
Тe
(С)
Тes
(С)
Комфортность P
(гПа)
Po
(гПа)
Тmin
(С)
Tmax
(С)
R
(мм)
R24
(мм)
S
(см)
ЮВ 3 16 км 8/8 1440 м +27.0 +21.0 70 +34 +34 очень
душно
1015.9
В 2 16 км 10/10 1200 м +27.0 +21.0 70 +34 +34 очень
душно
1015.9
В 2 16 км 10/10 1140 м +26.0 +21.0 74 +33 +33 очень
душно
1015.9
В 2 16 км н/о +26.0 +21.0 74 +33 +33 очень
душно
1015.9
нст 2 16 км н/о +25.0 +21.0 78 +31 +31 очень
душно
1016.2
штиль 0 16 км н/о +25.0 +21.0 78 +31 +31 очень
душно
1016.5
штиль 0 16 км н/о +25.0 +21.0 78 +31 +31 очень
душно
1016.5
штиль 0 16 км 2/2 1500 м +24.0 +21.0 83 +30 +30 очень
душно
1016.9
штиль 0 16 км ясно +24.0 +21.0 83 +30 +30 очень
душно
1017.2
штиль 0 16 км н/о +24.0 +21.0 83 +30 +30 очень
душно
1017.5
штиль 0 16 км н/о +23.0 +20.0 83 +30 +30 очень
душно
1017.9
штиль 0 16 км ясно +22.0 +20.0 88 +28 +28 душно 1017.9
штиль 0 16 км ясно +22.0 +20.0 88 +28 +28 душно 1018.2
штиль 0 16 км ясно +22.0 +20.0 88 +28 +28 душно 1018.2
штиль 0 16 км ясно +22.0 +20.0 88 +28 +28 душно 1018.6
штиль 0 16 км ясно +22.0 +19.0 83 +27 +27 душно 1018.6
штиль 0 16 км ясно +22.0 +19.0 83 +27 +27 душно 1018.2
СВ 2 16 км ясно +22.0 +20.0 88 +28 +28 душно 1018.2
СВ 2 16 км ясно +22.0 +19.0 83 +27 +27 душно 1018.2
штиль 0 16 км ясно +22.0 +19.0 83 +27 +27 душно 1018.2
штиль 0 16 км ясно +22.0 +19.0 83 +27 +27 душно 1017.9
штиль 0 16 км ясно +22.0 +19.0 83 +27 +27 душно 1017.9
штиль 0 16 км ясно +22.0 +19.0 83 +27 +27 душно 1017.5
штиль 0 16 км ясно +21.0 +18.0 83 +25 +25 комфорт 1017.5
штиль 0 16 км ясно +21.0 +19.0 88 +25 +25 комфорт 1017.2
штиль 0 16 км ясно +21.0 +19.0 88 +25 +25 комфорт 1017.2
штиль 0 16 км ясно +21.0 +18.0 83 +25 +25 комфорт 1016.9
штиль 0 16 км ясно +21.0 +18.0 83 +25 +25 комфорт 1016.5
штиль 0 16 км ясно +21.0 +18.0 83 +25 +25 комфорт 1016.5
штиль 0 16 км ясно +20.0 +18.0 88 +23 +23 комфорт 1016.5
штиль 0 16 км ясно +20.0 +18.0 88 +23 +23 комфорт 1016.5
штиль 0 16 км ясно +20.0 +18.0 88 +23 +23 комфорт 1016.5
штиль 0 16 км ясно +19.0 +17.0 88 +20 +20 1016.5
штиль 0 16 км ясно +20.0 +18.0 88 +23 +23 комфорт 1016.5
штиль 0 16 км ясно +20.0 +17.0 83 +23 +23 комфорт 1016.5
штиль 0 16 км ясно +19.0 +17.0 88 +20 +20 1016.5
штиль 0 16 км 2/2 1260 м +19.0 +17.0 88 +20 +20 1016.9
штиль 0 16 км ясно +19.0 +17.0 88 +20 +20 1016.9
штиль 0 16 км ясно +20.0 +17.0 83 +23 +23 комфорт 1016.9
штиль 0 16 км ясно +20.0 +16.0 78 +22 +22 комфорт 1017.2
штиль 0 16 км ясно +19.0 +16.0 83 +20 +20 1017.2
штиль 0 16 км ясно +20.0 +17.0 83 +23 +23 комфорт 1017.9
штиль 0 16 км ясно +21.0 +18.0 83 +25 +25 комфорт 1017.9
В 3 16 км ясно +23.0 +19.0 78 +29 +30 очень
душно
1018.2
В 4 16 км ясно +24.0 +19.0 74 +29 +30 душно 1018.6
В 4 н/о ясно +25.0 +19.0 69 +30 +31 душно 1018.9
В 4 16 км ясно +26.0 +19.0 65 +31 +34 очень
душно
1018.9
В 3 16 км ясно +26.0 +19.0 65 +31 +35 очень
душно
1018.9
Местоположение метеостанции Mercedita Airport: широта 18.0167 долгота -66.5667 высота над уровнем моря 8 м.
В архиве по умолчанию представлена погода в Понсе за последние 1-2 суток. Обновление информации о фактической погоде в базе происходит ежечасно! Архивные данные за месяц целиком и за предыдущие месяцы Вы можете получить, выбрав интересующий диапазон дат из раскрывающегося списка и нажав кнопку "Ввод!".
Внимание! Архив погоды МЕТАР в базе сайта по станциям, не включенным в климатический монитор, хранится не более 60 дней. Нет смысла пытаться выбрать более раннюю дату.
*Определитесь, кто Вы:
Внимание! Время в таблицах - местное (без учета летнего времени). Для получения всемирного времени необходимо вычесть поправку, которая равна -4 ч.
Смотрите также архив погоды в соседних городах и на ближайших метеорологических станциях:
Партнеры нашего сайта:      
Пояснения к столбцам:
  • Ветер - указаны скорость ветра в м/с - средняя за 10 мин, порывы в срок и между сроками (в фигурных скобках) и направление, откуда дует ветер: С - северный,
  • СВ - северо-восточный, В - восточный, ЮВ - юго-восточный, Ю - южный, ЮЗ - юго-западный, З - западный, СЗ - северо-западный.
  • Видимость - горизонтальная дальность видимости в метрах или километрах. При видимости от 1 до 10 км при отсутствии осадков обычно наблюдается дымка, при ухудшении видимости до 1 км и менее - туман. В сухую погоду видимость может ухудшаться дымом, пылью или мглою.
  • Явления - указаны атмосферные явления, наблюдавшиеся в срок или в последний час перед сроком; фигурными скобками обозначены явления, наблюдавшиеся между сроками (за 1-3 часа до срока); квадратными скобками обозначены град или гололедные отложения с указанием их диаметра в мм.
  • Облачность - указаны через наклонную черту общая и нижняя облачность в баллах и высота нижней границы облаков в метрах; квадратными скобками обозначены формы облаков: Ci - перистые, Cs - перисто-слоистые, Cc - перисто-кучевые, Ac - высококучевые, As - высокослоистые, Sc - слоисто-кучевые, Ns - слоисто-дождевые, Cu - кучевые, Cb - кучево-дождевые. Подробнее классификацию облаков см. в Атласе облаков (PDF).
  • T - Температура воздуха - температура, измеренная на высоте 2 м над землей.
  • Td - Температура точки росы - температура, при понижении до которой содержащийся в воздухе водяной пар достигнет насыщения.
  • f - Относительная влажность воздуха - влажноcть воздуха, измеренная на высоте 2 м над землей.
  • Te - Эффективная температура - температура, которую ощущает одетый по сезону человек в тени. Характеристика душности погоды. При расчете учитывается влияние влажности воздуха и скорости ветра на теплоощущения человека.
  • Tes - Эффективная температура на солнце - температура, которую ощущает человек, с поправкой на солнечный нагрев. Характеристика знойности погоды. Зависит от высоты солнца над горизонтом, облачности и скорости ветра. Ночью, в пасмурную погоду, а также при ветре 12 м/с и более поправка равна нулю.
  • P - Атмосферное давление - приведенное к уровню моря атмосферное давление.
  • Po - Атмосферное давление - измеренное на уровне метеостанции атмосферное давление.
  • Tmin - Минимальная температура - минимум температуры воздуха на высоте 2 м над землей.
  • Tmax - Максимальная температура - максимум температуры воздуха на высоте 2 м над землей.
  • R - Количество осадков - Количество выпавших осадков за период времени, мм. При наведении курсора мыши на число - период времени, за который выпало указанное количество осадков.
  • R24 - Количество осадков - Количество выпавших осадков за 24 часа, мм.
  • S - Снежный покров - Высота снежного покрова, см. При наведении курсора мыши на число - состояние снежного покрова и степень покрытия местности в баллах.